{"data":{"norad_id":53976,"intl_designator":"2022-125N","name":"STARLINK-5134","alt_names":[],"object_type":"PAYLOAD","status":"ACTIVE","operator":null,"country":"US","launch_date":"2022-10-05","launch_site_code":"AFWTR","launch_vehicle":null,"mission":null,"orbit_class":"UNKNOWN","rcs_meters":null,"size_class":null,"mass_kg":null,"dimensions":null,"purposes":["comms"],"wikipedia_slug":null,"has_3d_model":false,"image_url":null,"decayed_at":null,"tle_current":{"epoch":"2026-05-25T05:05:44.577600Z","epoch_age_seconds":53401,"freshness":"FRESH","line1":"1 53976U 22125N   26145.21232150  .00000168  00000+0  28616-4 0  9997","line2":"2 53976  53.2157 220.7129 0001168  85.6561 274.4565 15.08844070201154","mean_motion":15.0884407,"eccentricity":0.0001168,"inclination_deg":53.2157,"raan_deg":220.7129,"arg_perigee_deg":85.6561,"mean_anomaly_deg":274.4565,"bstar":2.8616e-5,"rev_number":20115,"period_min":95.437297241722,"perigee_km":538.9229416539,"apogee_km":540.5389556067,"semimajor_km":6917.8679486303,"source":"CELESTRAK","updated_at":"2026-05-25T13:38:17.618985Z"}}}